Simultaneous Nadir Overpasses (SNOs) Predictions

Prediction of SNOs between AQUA and NOAA-19 Satellite Orbit:

Table of predicted SNOs for the next 14.0 days since TLE Epoch: 5/2/2014
Index Date (AQUA) Time (AQUA) Lat,Lon (AQUA) SZA (AQUA ) Date (NOAA-19) Time (NOAA-19) Lat,Lon (NOAA-19) SZA (NOAA-19 ) Distance(km) Time Diff (sec)
1 05/04/2014 02:02:27 -75.23, -39.54 120.59 05/04/2014 02:02:00 -75.24, -39.56 120.58 0.81 27
2 05/04/2014 02:51:26 73.77, 131.66 57.83 05/04/2014 02:52:33 73.76, 131.74 57.81 2.85 67
3 05/06/2014 06:46:53 -75.59,-111.61 120.83 05/06/2014 06:46:01 -75.59,-111.64 120.81 0.94 52
4 05/06/2014 07:35:56 74.35, 59.26 57.81 05/06/2014 07:36:39 74.34, 59.28 57.81 0.82 43
5 05/08/2014 11:33:05 -80.40, 152.85 115.15 05/08/2014 11:31:51 -80.02, 151.70 115.31 47.59 74
6 05/08/201
